Temp
8 8 8 7 7 7 7 7 7 6 6 6 6 6 6 6 6 6 6 6 6 5 5 5 5 5 5 5 5 5 5 5 5
8 7 7 7 7 7 6 6 6 6 6 6 6 6 5 6 5 5 5 5 5 5 5 5 5 5 5 5 5 5 5 5 5
7 7 7 7 6 6 6 6 6 6 6 6 6 6 5 5 5 5 5 5 5 5 5 5 5 5 5 5 5 5 5 5 5
7 6 6 6 6 6 6 6 6 6 6 6 6 6 6 5 5 5 5 5 5 5 5 5 5 5 5 4 4 4 4 4 4
7 6 6 6 6 6 6 6 6 6 6 6 6 6 6 5 5 5 5 5 5 5 5 5 5 5 5 4 4 4 4 4 4
7 7 6 6 6 6 6 6 6 6 6 6 6 6 5 5 5 5 5 5 5 5 5 5 5 5 5 4 4 4 4 4 4
7 7 7 6 6 6 6 6 6 6 6 6 6 5 5 5 5 5 5 5 5 5 5 5 4 4 4 4 4 4 4 4 3
7 7 7 7 6 6 6 6 6 6 6 6 6 5 5 6 5 5 5 5 5 5 4 4 4 4 4 4 3 3 3 3 3
7 7 7 7 6 6 6 6 6 6 6 6 6 6 5 5 5 5 5 5 5 4 4 4 4 4 3 3 3 3 3 3 3
7 7 7 7 7 7 6 6 6 6 6 6 6 6 6 6 5 5 5 5 5 4 4 4 4 4 4 4 3 3 3 3 3
8 7 7 7 7 6 6 6 6 6 6 6 6 6 6 5 5 5 5 5 5 4 4 4 4 4 4 3 3 3 2 2 2
8 7 7 7 7 6 6 6 6 6 6 6 6 6 6 5 5 5 5 5 5 5 4 4 4 4 3 3 3 3 3 2 2
7 7 7 7 7 6 6 6 6 6 6 6 6 6 6 6 5 5 5 5 5 5 4 4 3 3 3 3 2 3 3 2 2
7 7 7 7 7 6 6 6 6 6 6 6 6 6 6 6 6 5 5 5 5 4 4 4 4 4 4 3 3 3 2 2 2
7 7 7 7 7 7 7 7 6 6 6 6 6 7 6 6 5 5 5 5 4 4 4 4 4 4 3 3 3 2 2 2 2
6 6 6 6 7 7 7 7 6 6 6 6 6 7 6 6 5 5 5 5 4 4 2 2 3 2 3 2 2 2 2 1 2
6 6 6 6 6 6 6 6 6 6 6 6 6 6 7 6 6 5 5 4 4 4 3 2 2 2 2 2 2 2 2 2 1
5 5 6 6 6 6 6 6 6 6 6 5 5 5 6 6 6 5 5 5 4 4 3 3 2 2 3 2 2 1 1 1 1
5 5 5 5 5 6 6 6 5 5 6 6 5 5 5 5 5 5 4 3 3 3 3 3 2 1 3 3 3 2 1 1 1
4 5 5 5 5 5 5 5 5 6 6 6 5 5 5 4 4 4 4 3 3 3 3 3 2 0 1 2 2 2 2 1 1
Height
3191 3191 3192 3193 3193 3193 3194 3194 3195 3195 3194 3194 3194 3194 3194 3193 3191 3191 3190 3189 3188 3187 3185 3184 3183 3181 3180 3179 3177 3175 3173 3171 3170
3193 3193 3194 3195 3195 3196 3196 3197 3197 3197 3197 3197 3196 3196 3195 3195 3193 3193 3191 3190 3189 3187 3186 3184 3183 3182 3180 3179 3178 3176 3174 3172 3170
3195 3196 3197 3197 3198 3198 3198 3198 3198 3199 3199 3198 3198 3198 3196 3195 3194 3193 3192 3191 3189 3187 3186 3184 3183 3181 3180 3178 3177 3176 3174 3172 3171
3197 3198 3198 3199 3199 3199 3200 3200 3200 3199 3199 3199 3198 3197 3197 3195 3194 3193 3192 3190 3189 3187 3186 3184 3182 3180 3179 3178 3176 3175 3174 3172 3170
3199 3199 3200 3200 3200 3201 3201 3200 3200 3200 3199 3198 3198 3197 3196 3195 3193 3192 3191 3190 3188 3186 3185 3183 3181 3180 3178 3176 3175 3174 3172 3170 3169
3199 3200 3201 3201 3201 3201 3200 3200 3200 3199 3198 3198 3197 3195 3195 3194 3193 3191 3191 3189 3187 3185 3183 3182 3180 3179 3177 3175 3173 3171 3170 3168 3167
3199 3200 3200 3201 3200 3200 3200 3200 3199 3199 3198 3197 3196 3194 3193 3193 3191 3190 3189 3187 3185 3183 3182 3180 3179 3177 3175 3173 3171 3169 3167 3166 3165
3198 3199 3199 3199 3199 3199 3199 3198 3198 3197 3196 3195 3194 3193 3192 3191 3190 3188 3187 3185 3183 3181 3180 3178 3176 3174 3172 3170 3168 3166 3164 3163 3162
3197 3198 3198 3197 3197 3197 3197 3196 3196 3195 3194 3193 3192 3191 3190 3189 3187 3186 3184 3182 3180 3178 3177 3175 3173 3171 3169 3167 3165 3163 3161 3159 3158
3196 3196 3196 3196 3196 3195 3195 3195 3194 3193 3193 3192 3190 3189 3188 3186 3185 3183 3182 3180 3178 3175 3173 3171 3170 3168 3165 3163 3162 3159 3158 3156 3155
3194 3194 3194 3194 3194 3194 3193 3193 3192 3191 3190 3189 3188 3186 3185 3183 3182 3180 3178 3177 3174 3172 3169 3167 3166 3164 3163 3160 3158 3156 3154 3153 3151
3190 3191 3192 3192 3192 3192 3191 3190 3189 3188 3187 3186 3184 3183 3182 3180 3177 3175 3174 3172 3170 3167 3165 3163 3161 3160 3159 3158 3156 3154 3151 3149 3148
3187 3188 3188 3189 3189 3188 3187 3186 3186 3185 3183 3182 3180 3179 3178 3176 3174 3171 3168 3166 3164 3162 3160 3158 3155 3155 3156 3153 3152 3150 3148 3146 3144
3183 3184 3185 3185 3185 3185 3184 3183 3182 3181 3180 3178 3176 3175 3172 3170 3169 3166 3163 3160 3158 3157 3156 3153 3151 3150 3149 3148 3146 3144 3142 3141 3140
3178 3180 3181 3181 3181 3181 3180 3179 3178 3177 3175 3173 3171 3169 3168 3166 3164 3162 3159 3155 3153 3152 3150 3148 3147 3146 3144 3142 3140 3138 3137 3136 3135
3174 3176 3177 3177 3176 3176 3175 3174 3173 3172 3170 3167 3166 3164 3162 3161 3159 3156 3154 3150 3148 3145 3144 3143 3140 3139 3138 3137 3135 3133 3131 3130 3129
3170 3171 3172 3173 3172 3171 3170 3169 3168 3167 3165 3162 3159 3156 3158 3155 3152 3151 3149 3146 3143 3141 3139 3138 3135 3133 3131 3130 3128 3127 3127 3125 3123
3165 3166 3166 3167 3168 3167 3166 3164 3162 3161 3161 3158 3154 3150 3149 3147 3145 3144 3142 3139 3137 3135 3134 3132 3129 3126 3125 3123 3122 3121 3120 3119 3117
3163 3163 3161 3162 3162 3161 3160 3159 3157 3155 3154 3153 3149 3145 3143 3140 3139 3140 3137 3133 3131 3130 3128 3126 3124 3121 3119 3118 3117 3115 3114 3112 3112
3156 3156 3156 3156 3156 3155 3154 3153 3151 3149 3148 3146 3144 3141 3138 3137 3132 3130 3133 3128 3125 3123 3122 3120 3118 3116 3113 3111 3112 3110 3108 3107 3106
Wind_Speed
15 14 14 14 14 14 14 15 16 17 18 18 17 16 15 15 16 15 16 15 15 15 16 16 16 16 17 17 16 15 14 14 13
16 16 16 16 16 17 16 16 16 15 15 14 15 14 14 14 14 13 14 13 13 13 14 14 14 14 15 15 15 15 15 15 15
17 17 17 16 16 15 15 14 13 13 13 12 12 11 11 11 12 12 12 12 12 12 12 13 13 13 14 14 14 14 14 14 14
15 14 14 13 12 11 10 10 10 10 10 11 11 10 10 10 11 11 11 11 11 12 12 12 13 13 13 13 14 14 14 13 13
12 11 9 8 7 6 6 7 8 9 9 10 10 11 11 10 11 11 11 11 12 12 12 13 13 13 14 14 14 14 14 13 13
8 7 5 4 4 5 5 6 8 9 10 11 11 11 12 11 10 10 11 12 13 13 13 13 13 14 14 15 15 14 14 14 13
3 2 2 3 4 6 6 7 8 9 10 11 11 12 13 11 10 11 12 13 13 15 15 15 15 15 16 17 16 16 15 14 13
1 2 3 4 5 6 7 7 8 9 11 12 12 13 13 12 11 12 13 15 16 16 16 17 17 18 18 19 19 19 17 16 14
5 5 5 5 6 6 6 7 8 10 11 12 12 12 12 13 13 14 15 17 18 19 20 20 20 20 21 21 21 21 18 17 16
8 8 7 6 6 6 6 7 8 10 11 11 12 13 14 14 16 17 17 19 21 22 23 24 23 22 22 22 20 17 17 17 16
10 10 9 8 7 7 8 9 10 11 12 13 14 15 16 17 18 18 19 21 22 23 25 24 23 24 22 20 17 18 18 18 16
12 12 10 10 10 10 11 12 12 13 14 15 16 17 18 18 21 21 23 24 25 25 23 25 24 20 15 15 16 16 20 20 19
15 14 13 12 13 13 14 15 15 16 16 17 19 20 21 20 21 24 27 27 27 26 25 26 23 16 15 14 14 15 18 20 21
17 16 14 14 15 16 17 17 18 18 20 21 22 23 24 25 24 25 28 29 28 27 24 23 24 22 19 17 17 17 18 19 19
19 17 16 17 18 18 18 19 21 22 23 24 25 26 25 26 27 27 28 29 29 28 24 24 23 21 20 19 20 20 20 21 20
18 16 17 19 20 20 21 22 24 25 26 28 28 28 29 27 27 27 27 28 28 29 28 25 24 27 23 22 22 22 22 21 22
17 18 18 19 21 23 24 26 27 27 28 30 33 34 31 30 28 25 24 24 26 26 27 23 30 30 26 26 25 23 22 22 23
22 19 19 23 24 25 27 28 29 30 29 31 34 36 35 32 30 27 27 26 27 28 29 29 30 32 26 24 25 24 24 23 21
31 23 27 25 26 27 28 30 31 32 31 31 33 33 34 32 33 28 27 30 30 30 30 30 29 30 29 25 23 22 21 19 20
27 24 25 26 27 28 29 31 32 34 34 34 32 32 33 31 32 33 27 31 32 31 31 32 30 26 34 29 20 20 19 19 18
Wind_Direction
112 105 100 94 90 87 83 82 80 77 73 70 67 62 57 52 54 48 45 41 37 33 32 29 27 26 26 26 23 20 16 11 7
102 99 95 92 88 85 81 76 72 68 65 62 59 55 45 40 39 36 34 29 25 23 21 18 14 13 13 12 10 11 11 10 9
99 95 92 87 82 77 68 62 57 51 46 43 40 39 38 24 24 20 19 15 12 12 8 5 2 1 0 358 356 356 356 360 2
95 91 86 80 73 66 58 45 33 26 21 17 13 12 20 13 8 8 3 1 2 2 357 356 352 351 348 345 344 343 342 344 346
91 86 81 74 64 49 34 18 6 357 354 353 353 352 355 358 355 354 348 352 355 354 352 349 347 346 343 339 336 334 331 331 333
85 72 64 49 26 6 355 346 341 335 332 334 334 337 337 339 342 339 342 348 348 347 344 340 339 340 340 337 334 330 325 323 323
97 72 14 340 332 326 323 321 319 317 318 317 320 322 321 326 333 329 335 337 338 336 332 330 328 330 332 332 329 323 321 319 317
283 304 307 306 306 305 305 306 305 306 307 305 311 307 310 317 319 322 324 327 327 324 321 320 320 320 319 322 321 317 313 312 312
277 281 283 290 293 296 298 301 305 303 303 302 297 302 307 311 314 315 316 318 318 315 313 312 312 314 313 316 315 315 311 309 308
268 269 276 283 285 295 300 302 300 301 301 301 303 307 306 308 308 308 312 314 312 309 309 309 310 312 309 311 313 314 311 307 308
266 265 274 277 281 284 290 291 296 298 299 302 306 307 308 307 305 307 312 313 308 308 309 307 311 310 308 314 310 306 305 304 305
260 256 263 271 278 287 295 299 301 301 300 301 302 304 304 305 307 307 308 309 307 308 305 306 306 304 306 298 296 293 295 297 298
252 250 259 273 282 291 297 300 301 303 304 304 303 303 302 299 303 305 307 308 307 308 312 311 309 304 290 288 285 282 279 285 290
243 249 260 273 282 290 295 297 299 300 300 300 299 300 303 305 307 304 303 305 305 306 307 305 303 309 312 308 299 289 277 274 274
239 249 264 275 285 289 291 295 297 297 299 300 301 303 305 306 305 303 301 301 303 304 300 297 302 305 306 300 293 290 286 282 280
240 253 266 277 282 287 291 295 297 300 302 302 303 302 305 303 302 301 301 300 301 303 291 305 311 304 302 297 292 290 287 283 283
241 255 267 275 281 287 292 295 297 297 299 302 302 304 303 305 302 301 298 297 297 298 298 291 300 301 298 295 291 287 285 284 283
248 260 277 279 282 287 290 292 293 295 298 299 299 301 303 303 304 306 304 300 299 297 296 298 300 298 301 293 287 290 288 287 284
265 266 280 279 283 286 288 290 291 293 294 293 294 295 298 300 298 300 299 295 294 295 297 297 292 300 299 299 298 291 290 286 285
256 257 268 278 283 286 288 290 291 291 291 290 289 290 290 292 293 294 294 289 289 290 291 293 293 294 296 305 301 295 295 292 287